EW4819 Weather Reports


time (UTC)temp
F
wind
direction
speed
knots
gust
knots
rain 1hr
in
rain 24hr
in
rain mn
in
humidity
%
barometer
mb
20260510190501 54 37 1.7 5.2 0.00 0.00 0.00 64 1011.5
20260510190005 54 41 2.6 7.8 0.00 0.00 0.00 62 1011.4
20260510185501 54 43 2.6 8.7 0.00 0.00 0.00 62 1011.5
20260510185002 54 38 1.7 8.7 0.00 0.00 0.00 62 1011.5
20260510184523 55 23 2.6 8.7 0.00 0.00 0.00 62 1011.5
20260510184002 55 19 3.5 8.7 0.00 0.00 0.00 61 1011.6
20260510183522 56 27 3.5 8.7 0.00 0.00 0.00 60 1011.7
20260510183002 56 35 4.3 12.2 0.00 0.00 0.00 60 1011.8
20260510182502 56 30 4.3 12.2 0.00 0.00 0.00 59 1011.7
20260510182002 56 27 3.5 10.4 0.00 0.00 0.00 59 1011.8
20260510181503 57 36 2.6 9.6 0.00 0.00 0.00 59 1011.8
20260510181003 57 34 3.5 8.7 0.00 0.00 0.00 61 1011.8
20260510180503 57 37 3.5 7.8 0.00 0.00 0.00 61 1011.8
20260510180003 57 33 3.5 9.6 0.00 0.00 0.00 60 1011.9
20260510175504 57 19 3.5 11.3 0.00 0.00 0.00 60 1011.9
20260510175003 57 35 3.5 12.2 0.00 0.00 0.00 60 1011.9
20260510174502 56 43 4.3 12.2 0.00 0.00 0.00 61 1012.0
20260510174003 56 34 5.2 11.3 0.00 0.00 0.00 62 1012.0
20260510173501 56 25 5.2 13.0 0.00 0.00 0.00 63 1012.0
20260510173002 56 27 4.3 13.0 0.00 0.00 0.00 62 1012.0
20260510172501 57 35 3.5 10.4 0.00 0.00 0.00 62 1012.0
20260510172002 57 35 4.3 10.4 0.00 0.00 0.00 61 1012.0
20260510171502 57 26 3.5 9.6 0.00 0.00 0.00 63 1012.0
20260510171001 57 26 3.5 9.6 0.00 0.00 0.00 62 1012.0
20260510170502 57 24 4.3 11.3 0.00 0.00 0.00 63 1011.9
20260510170002 57 17 4.3 11.3 0.00 0.00 0.00 63 1012.0
20260510165502 57 29 3.5 10.4 0.00 0.00 0.00 63 1012.1
20260510165002 57 43 3.5 10.4 0.00 0.00 0.00 64 1012.1
20260510164502 57 41 4.3 12.2 0.00 0.00 0.00 64 1012.2
20260510164002 56 42 5.2 12.2 0.00 0.00 0.00 64 1012.2
20260510163502 56 43 5.2 12.2 0.00 0.00 0.00 65 1012.3
20260510163002 56 41 3.5 11.3 0.00 0.00 0.00 65 1012.3
20260510162502 56 34 2.6 11.3 0.00 0.00 0.00 67 1012.4
20260510162002 56 28 2.6 9.6 0.00 0.00 0.00 67 1012.4
20260510161502 56 27 3.5 13.0 0.00 0.00 0.00 67 1012.4
20260510161002 56 27 4.3 13.0 0.00 0.00 0.00 66 1012.5
20260510160502 56 44 4.3 11.3 0.00 0.00 0.00 66 1012.5
20260510160002 56 49 4.3 11.3 0.00 0.00 0.00 65 1012.6
20260510155523 56 37 3.5 11.3 0.00 0.00 0.00 67 1012.6
20260510155002 56 31 3.5 13.9 0.00 0.00 0.00 66 1012.7
20260510154502 56 34 4.3 13.9 0.00 0.00 0.00 66 1012.7
20260510154002 56 28 3.5 10.4 0.00 0.00 0.00 66 1012.7
20260510153502 56 20 3.5 9.6 0.00 0.00 0.00 66 1012.8
20260510153023 57 32 4.3 12.2 0.00 0.00 0.00 66 1012.7
20260510152502 57 44 3.5 12.2 0.00 0.00 0.00 66 1012.8
20260510152002 57 38 3.5 13.0 0.00 0.00 0.00 66 1012.8
20260510151502 57 33 4.3 13.0 0.00 0.00 0.00 66 1012.9
20260510151002 57 29 3.5 11.3 0.00 0.00 0.00 67 1012.9
20260510150524 57 29 2.6 11.3 0.00 0.00 0.00 67 1013.0
20260510150003 57 45 2.6 8.7 0.00 0.00 0.00 68 1013.0
20260510145503 57 46 3.5 10.4 0.00 0.00 0.00 67 1013.0
20260510145025 57 39 3.5 10.4 0.00 0.00 0.00 66 1013.0
20260510144503 57 41 3.5 8.7 0.00 0.00 0.00 67 1013.1
20260510144004 57 36 3.5 11.3 0.00 0.00 0.00 67 1013.3
20260510143502 57 29 4.3 11.3 0.00 0.00 0.00 67 1013.1
20260510143003 57 38 4.3 12.2 0.00 0.00 0.00 67 1013.1
20260510142502 57 35 4.3 12.2 0.00 0.00 0.00 66 1013.2
20260510142003 57 28 4.3 12.2 0.00 0.00 0.00 67 1013.2
20260510141502 58 26 3.5 12.2 0.00 0.00 0.00 67 1013.3
20260510141002 58 21 4.3 10.4 0.00 0.00 0.00 67 1013.2
20260510140502 58 33 4.3 10.4 0.00 0.00 0.00 67 1013.3
20260510140002 58 42 4.3 10.4 0.00 0.00 0.00 66 1013.3
20260510135502 58 42 4.3 10.4 0.00 0.00 0.00 66 1013.4
20260510135002 58 47 4.3 12.2 0.00 0.00 0.00 67 1013.4
20260510134502 58 48 4.3 12.2 0.00 0.00 0.00 66 1013.3
20260510134002 58 43 4.3 13.0 0.00 0.00 0.00 65 1013.4
20260510133502 58 41 4.3 13.0 0.00 0.00 0.00 66 1013.5
20260510133002 58 42 3.5 10.4 0.00 0.00 0.00 66 1013.6
20260510132502 58 47 3.5 10.4 0.00 0.00 0.00 65 1013.6
20260510132023 59 39 3.5 8.7 0.00 0.00 0.00 63 1013.7
20260510131502 59 27 3.5 9.6 0.00 0.00 0.00 63 1013.7
20260510131002 59 34 3.5 10.4 0.00 0.00 0.00 63 1013.7
20260510130523 59 47 3.5 10.4 0.00 0.00 0.00 62 1013.7
20260510130004 59 50 4.3 12.2 0.00 0.00 0.00 63 1013.7
20260510125502 59 48 4.3 12.2 0.00 0.00 0.00 63 1013.8
20260510125023 60 49 4.3 12.2 0.00 0.00 0.00 62 1013.8
20260510124502 59 34 3.5 10.4 0.00 0.00 0.00 64 1013.9
20260510124002 59 34 4.3 10.4 0.00 0.00 0.00 64 1013.9
20260510123502 59 39 4.3 10.4 0.00 0.00 0.00 64 1013.8
20260510123024 59 41 4.3 11.3 0.00 0.00 0.00 65 1013.8
20260510122523 59 28 4.3 11.3 0.00 0.00 0.00 65 1013.9
20260510122002 59 24 4.3 10.4 0.00 0.00 0.00 64 1014.0
20260510121502 59 26 3.5 9.6 0.00 0.00 0.00 64 1014.0
20260510121002 59 26 3.5 12.2 0.00 0.00 0.00 64 1014.0
20260510120502 59 30 3.5 12.2 0.00 0.00 0.00 64 1014.0
20260510120002 59 26 4.3 10.4 0.00 0.00 0.00 63 1014.1
20260510115503 59 38 4.3 10.4 0.00 0.00 0.00 62 1014.1
20260510115003 59 58 3.5 11.3 0.00 0.00 0.00 63 1014.1
20260510114503 59 64 3.5 11.3 0.00 0.00 0.00 64 1014.2
20260510114004 59 60 4.3 11.3 0.00 0.00 0.00 64 1014.2
20260510113503 58 51 5.2 12.2 0.00 0.00 0.00 64 1014.2
20260510113024 58 38 5.2 12.2 0.00 0.00 0.00 64 1014.3
20260510112523 58 34 4.3 12.2 0.00 0.00 0.00 64 1014.3
20260510112025 58 43 4.3 13.0 0.00 0.00 0.00 66 1014.4
20260510111502 58 44 6.1 13.0 0.00 0.00 0.00 64 1014.5
20260510111002 58 41 4.3 12.2 0.00 0.00 0.00 63 1014.5
20260510110502 58 50 4.3 10.4 0.00 0.00 0.00 65 1014.7
20260510110002 58 52 4.3 12.2 0.00 0.00 0.00 65 1014.7
20260510105502 58 57 3.5 12.2 0.00 0.00 0.00 66 1014.7
20260510105002 57 57 3.5 14.8 0.00 0.00 0.00 66 1014.8
20260510104502 57 52 4.3 14.8 0.00 0.00 0.00 65 1014.8
20260510104002 58 39 5.2 10.4 0.00 0.00 0.00 64 1014.8
20260510103523 58 30 5.2 12.2 0.00 0.00 0.00 64 1014.8
20260510103002 58 33 5.2 12.2 0.00 0.00 0.00 64 1014.8
20260510102502 58 28 4.3 11.3 0.00 0.00 0.00 66 1014.9
20260510102002 58 24 4.3 10.4 0.00 0.00 0.00 67 1014.8
20260510101502 57 31 4.3 10.4 0.00 0.00 0.00 67 1014.9
20260510101002 57 24 3.5 10.4 0.00 0.00 0.00 67 1014.9
20260510100523 57 19 3.5 10.4 0.00 0.00 0.00 66 1014.9
20260510100003 57 21 3.5 12.2 0.00 0.00 0.00 68 1015.0
20260510095502 57 22 3.5 12.2 0.00 0.00 0.00 69 1015.0
20260510095002 57 33 3.5 11.3 0.00 0.00 0.00 68 1015.0
20260510094502 57 44 4.3 11.3 0.00 0.00 0.00 68 1014.9
20260510094002 56 51 3.5 11.3 0.00 0.00 0.00 70 1015.0
20260510093523 56 38 3.5 11.3 0.00 0.00 0.00 70 1015.0
20260510093004 55 27 3.5 10.4 0.00 0.00 0.00 72 1015.1
20260510092502 55 30 3.5 8.7 0.00 0.00 0.00 71 1015.1
20260510092002 54 32 3.5 13.0 0.00 0.00 0.00 73 1015.1
20260510091502 54 27 4.3 13.0 0.00 0.00 0.00 73 1015.2
20260510091002 54 24 3.5 13.0 0.00 0.00 0.00 74 1015.2
20260510090502 54 29 1.7 8.7 0.00 0.00 0.00 76 1015.3
20260510090003 53 16 2.6 9.6 0.00 0.00 0.00 76 1015.3
20260510085502 53 24 3.5 9.6 0.00 0.00 0.00 75 1015.4
20260510085024 53 36 3.5 8.7 0.00 0.00 0.00 76 1015.4
20260510084524 53 34 2.6 8.7 0.00 0.00 0.00 75 1015.4
20260510084003 53 34 2.6 7.8 0.00 0.00 0.00 77 1015.4
20260510083504 53 37 3.5 9.6 0.00 0.00 0.00 77 1015.4
20260510083025 52 37 3.5 10.4 0.00 0.00 0.00 77 1015.4
20260510082504 52 35 3.5 10.4 0.00 0.00 0.00 77 1015.5
20260510082004 52 31 3.5 10.4 0.00 0.00 0.00 78 1015.4
20260510081503 52 27 3.5 7.8 0.00 0.00 0.00 78 1015.5
20260510081002 52 30 3.5 7.8 0.00 0.00 0.00 78 1015.5
20260510080502 52 27 2.6 9.6 0.00 0.00 0.00 78 1015.5
20260510080002 52 22 3.5 9.6 0.00 0.00 0.00 79 1015.4
20260510075524 52 34 2.6 8.7 0.00 0.00 0.00 79 1015.4
20260510075002 51 40 2.6 8.7 0.00 0.00 0.00 80 1015.5
20260510074502 51 33 2.6 8.7 0.00 0.00 0.00 81 1015.5
20260510074002 51 31 2.6 9.6 0.00 0.00 0.00 81 1015.6
20260510073524 51 33 2.6 9.6 0.00 0.00 0.00 81 1015.5
20260510073003 50 29 2.6 7.0 0.00 0.00 0.00 81 1015.5
20260510072502 50 27 2.6 7.0 0.00 0.00 0.00 81 1015.5
20260510072003 50 24 2.6 6.1 0.00 0.00 0.00 81 1015.5
20260510071503 50 23 2.6 6.1 0.00 0.00 0.00 81 1015.4
20260510071002 50 22 1.7 6.1 0.00 0.00 0.00 81 1015.4
20260510070503 50 26 1.7 5.2 0.00 0.00 0.00 82 1015.5
20260510070002 50 28 2.6 9.6 0.00 0.00 0.00 82 1015.5
20260510065504 50 26 2.6 9.6 0.00 0.00 0.00 82 1015.5
20260510065004 50 25 1.7 7.0 0.00 0.00 0.00 82 1015.5
20260510064503 50 28 2.6 7.0 0.00 0.00 0.00 82 1015.5
20260510064003 50 40 2.6 7.0 0.00 0.00 0.00 82 1015.4
20260510063503 50 43 2.6 7.0 0.00 0.00 0.00 82 1015.5
20260510063003 50 35 2.6 6.1 0.00 0.00 0.00 83 1015.4
20260510062503 50 31 1.7 6.1 0.00 0.00 0.00 83 1015.4
20260510062003 49 39 1.7 7.0 0.00 0.00 0.00 82 1015.4
20260510061503 49 35 1.7 7.0 0.00 0.00 0.00 82 1015.4
20260510061003 49 25 1.7 6.1 0.00 0.00 0.00 82 1015.4
20260510060504 49 26 1.7 6.1 0.00 0.00 0.00 82 1015.4
20260510060003 49 34 1.7 4.3 0.00 0.00 0.00 82 1015.4
20260510055503 49 28 1.7 4.3 0.00 0.00 0.00 82 1015.4
20260510055003 49 17 2.6 7.8 0.00 0.00 0.00 82 1015.4
20260510054503 49 25 1.7 7.8 0.00 0.00 0.00 82 1015.4
20260510054004 49 42 1.7 4.3 0.00 0.00 0.00 82 1015.3
20260510053503 49 36 0.9 3.5 0.00 0.00 0.00 82 1015.3
20260510053004 49 39 1.7 5.2 0.00 0.00 0.00 82 1015.3
20260510052504 49 42 1.7 7.0 0.00 0.00 0.00 82 1015.3
20260510052005 49 30 1.7 7.0 0.00 0.00 0.00 81 1015.3
20260510051504 49 25 1.7 6.1 0.00 0.00 0.00 81 1015.4
20260510051024 49 27 1.7 6.1 0.00 0.00 0.00 81 1015.4
20260510050503 49 36 1.7 4.3 0.00 0.00 0.00 81 1015.4
20260510050003 50 47 0.9 4.3 0.00 0.00 0.00 81 1015.4
20260510045524 50 43 0.9 1.7 0.00 0.00 0.00 81 1015.4
20260510045024 50 19 1.7 8.7 0.00 0.00 0.00 81 1015.3
20260510044503 50 23 2.6 8.7 0.00 0.00 0.00 81 1015.3
20260510044003 50 35 1.7 7.0 0.00 0.00 0.00 80 1015.2
20260510043503 50 36 0.9 3.5 0.00 0.00 0.00 80 1015.3
20260510043024 50 22 0.9 3.5 0.00 0.00 0.00 80 1015.3
20260510042503 50 29 1.7 4.3 0.00 0.00 0.00 80 1015.3
20260510042003 50 28 1.7 6.1 0.00 0.00 0.00 80 1015.2
20260510041503 51 25 1.7 6.1 0.00 0.00 0.00 79 1015.3
20260510041003 51 35 1.7 5.2 0.00 0.00 0.00 79 1015.3
20260510040503 51 36 1.7 4.3 0.00 0.00 0.00 79 1015.3
20260510040003 51 32 1.7 4.3 0.00 0.00 0.00 78 1015.3
20260510035503 51 35 1.7 4.3 0.00 0.00 0.00 78 1015.3
20260510035024 51 35 1.7 8.7 0.00 0.00 0.00 78 1015.4
20260510034503 51 27 1.7 8.7 0.00 0.00 0.00 78 1015.4
20260510034003 52 26 2.6 7.8 0.00 0.00 0.00 77 1015.5
20260510033524 52 28 2.6 8.7 0.00 0.00 0.00 77 1015.5
20260510033024 52 29 3.5 9.6 0.00 0.00 0.00 76 1015.6
20260510032503 52 33 3.5 9.6 0.00 0.00 0.00 75 1015.6
20260510032003 52 38 2.6 7.8 0.00 0.00 0.00 75 1015.5
20260510031503 52 38 2.6 7.8 0.00 0.00 0.00 74 1015.5
20260510031003 52 34 2.6 7.8 0.00 0.00 0.00 74 1015.6
20260510030503 52 28 2.6 7.8 0.00 0.00 0.00 73 1015.6
20260510030003 52 30 2.6 7.8 0.00 0.00 0.00 72 1015.6
20260510025503 52 33 1.7 7.0 0.00 0.00 0.00 71 1015.7
20260510025003 52 43 2.6 8.7 0.00 0.00 0.00 71 1015.7
20260510024504 53 52 2.6 8.7 0.00 0.00 0.00 70 1015.6
20260510024003 53 40 2.6 7.8 0.00 0.00 0.00 69 1015.5
20260510023504 53 37 2.6 7.8 0.00 0.00 0.00 68 1015.6
20260510023004 53 42 2.6 7.8 0.00 0.00 0.00 67 1015.5
20260510022504 53 36 3.5 10.4 0.00 0.00 0.00 67 1015.4
20260510022004 53 38 3.5 11.3 0.00 0.00 0.00 66 1015.3
20260510021504 53 35 3.5 11.3 0.00 0.00 0.00 66 1015.3
20260510021004 53 25 2.6 10.4 0.00 0.00 0.00 66 1015.3
20260510020503 53 25 1.7 10.4 0.00 0.00 0.00 66 1015.3
20260510020003 53 25 1.7 5.2 0.00 0.00 0.00 66 1015.4
20260510015503 53 27 1.7 5.2 0.00 0.00 0.00 66 1015.4
20260510015003 53 29 1.7 5.2 0.00 0.00 0.00 67 1015.4
20260510014503 53 30 0.9 3.5 0.00 0.00 0.00 66 1015.4
20260510014003 53 30 0.9 6.1 0.00 0.00 0.00 66 1015.4
20260510013503 53 36 1.7 6.1 0.00 0.00 0.00 65 1015.4
20260510013003 53 44 1.7 4.3 0.00 0.00 0.00 65 1015.3
20260510012503 53 43 1.7 4.3 0.00 0.00 0.00 65 1015.3
20260510012003 53 37 1.7 6.1 0.00 0.00 0.00 65 1015.4
20260510011503 53 41 0.9 6.1 0.00 0.00 0.00 64 1015.5
20260510011003 53 48 0.9 2.6 0.00 0.00 0.00 65 1015.4
20260510010503 53 36 0.9 1.7 0.00 0.00 0.00 64 1015.4
20260510010003 54 32 0.9 4.3 0.00 0.00 0.00 64 1015.4
20260510005504 54 34 0.9 4.3 0.00 0.00 0.00 64 1015.4
20260510005003 54 28 0.0 1.7 0.00 0.00 0.00 64 1015.5
20260510004503 54 28 0.0 1.7 0.00 0.00 0.00 63 1015.4
20260510004003 54 35 0.9 3.5 0.00 0.00 0.00 62 1015.4
20260510003503 54 37 0.9 3.5 0.00 0.00 0.00 61 1015.4
20260510003003 54 33 0.9 2.6 0.00 0.00 0.00 61 1015.4
20260510002505 54 17 0.9 3.5 0.00 0.00 0.00 62 1015.4
20260510002003 54 20 0.9 3.5 0.00 0.00 0.00 61 1015.5
20260510001503 54 36 0.9 3.5 0.00 0.00 0.00 60 1015.5
20260510001003 54 28 0.9 3.5 0.00 0.00 0.00 60 1015.5
20260510000524 54 30 0.9 2.6 0.00 0.00 0.00 59 1015.5
20260510000024 54 52 0.9 2.6 0.00 0.00 0.00 58 1015.5
20260509235503 54 54 0.9 2.6 0.00 0.00 0.00 58 1015.5
20260509235003 55 15 0.9 2.6 0.00 0.00 0.00 57 1015.5
20260509234503 55 20 0.9 2.6 0.00 0.00 0.00 57 1015.3
20260509234025 55 49 0.9 6.1 0.00 0.00 0.00 56 1015.3
20260509233524 55 49 0.9 6.1 0.00 0.00 0.00 56 1015.2
20260509233024 55 39 1.7 4.3 0.00 0.00 0.00 55 1015.2
20260509232504 55 45 1.7 4.3 0.00 0.00 0.00 55 1015.2
20260509232004 56 45 0.9 4.3 0.00 0.00 0.00 55 1015.2
20260509231505 56 44 0.0 2.6 0.00 0.00 0.00 54 1015.3
20260509231004 56 75 0.0 1.7 0.00 0.00 0.00 54 1015.3
20260509230504 56 63 0.9 2.6 0.00 0.00 0.00 53 1015.3
20260509230005 56 36 0.9 6.1 0.00 0.00 0.00 53 1015.2
20260509225503 56 39 2.6 8.7 0.00 0.00 0.00 52 1015.1
20260509225003 57 38 2.6 8.7 0.00 0.00 0.00 51 1015.0
20260509224503 57 28 0.9 4.3 0.00 0.00 0.00 52 1015.0
20260509224004 57 24 0.9 4.3 0.00 0.00 0.00 53 1015.0
20260509223503 57 23 1.7 4.3 0.00 0.00 0.00 52 1015.0
20260509223005 57 33 0.9 3.5 0.00 0.00 0.00 52 1015.1
20260509222524 57 39 0.9 4.3 0.00 0.00 0.00 52 1015.0
20260509222024 58 41 0.9 4.3 0.00 0.00 0.00 52 1015.1
20260509221503 58 34 1.7 3.5 0.00 0.00 0.00 52 1015.1
20260509221003 58 39 1.7 5.2 0.00 0.00 0.00 52 1015.0
20260509220503 58 51 1.7 5.2 0.00 0.00 0.00 51 1014.9
20260509220003 59 43 1.7 6.1 0.00 0.00 0.00 51 1014.9
20260509215503 59 36 1.7 6.1 0.00 0.00 0.00 50 1014.9
20260509215005 59 44 1.7 7.8 0.00 0.00 0.00 51 1014.8
20260509214504 59 47 1.7 7.8 0.00 0.00 0.00 51 1014.7
20260509214003 59 42 2.6 7.8 0.00 0.00 0.00 51 1014.7
20260509213524 60 40 1.7 7.0 0.00 0.00 0.00 51 1014.8
20260509213024 60 43 1.7 5.2 0.00 0.00 0.00 52 1014.9
20260509212503 60 55 1.7 5.2 0.00 0.00 0.00 51 1014.7
20260509212003 60 54 1.7 5.2 0.00 0.00 0.00 51 1014.7
20260509211503 60 47 0.9 4.3 0.00 0.00 0.00 52 1014.7
20260509211003 61 65 0.9 3.5 0.00 0.00 0.00 51 1014.7
20260509210503 61 68 1.7 7.0 0.00 0.00 0.00 50 1014.7
20260509210005 61 57 2.6 7.0 0.00 0.00 0.00 51 1014.7
20260509205503 61 51 2.6 9.6 0.00 0.00 0.00 50 1014.6
20260509205003 61 53 2.6 9.6 0.00 0.00 0.00 51 1014.6
20260509204505 61 60 1.7 8.7 0.00 0.00 0.00 51 1014.5
20260509204004 62 59 1.7 8.7 0.00 0.00 0.00 51 1014.5
20260509203524 62 52 2.6 7.8 0.00 0.00 0.00 51 1014.4
20260509203003 62 49 2.6 7.8 0.00 0.00 0.00 53 1014.2
20260509202503 62 53 1.7 6.1 0.00 0.00 0.00 54 1014.2
20260509202004 62 51 0.9 6.1 0.00 0.00 0.00 55 1014.3
20260509201504 62 33 0.9 3.5 0.00 0.00 0.00 54 1014.2
20260509201005 63 38 1.7 4.3 0.00 0.00 0.00 54 1014.0
20260509200525 63 50 1.7 6.1 0.00 0.00 0.00 54 1014.0
20260509200004 63 53 1.7 6.1 0.00 0.00 0.00 53 1013.9
20260509195526 64 48 1.7 5.2 0.00 0.00 0.00 53 1013.9
20260509195025 64 57 1.7 5.2 0.00 0.00 0.00 52 1013.8
20260509194504 64 64 1.7 7.8 0.00 0.00 0.00 52 1013.9
20260509194004 64 56 3.5 9.6 0.00 0.00 0.00 51 1013.7
20260509193504 65 59 3.5 9.6 0.00 0.00 0.00 50 1013.6
20260509193003 65 63 2.6 8.7 0.00 0.00 0.00 51 1013.7
20260509192525 65 61 3.5 9.6 0.00 0.00 0.00 51 1013.7
20260509192004 65 58 3.5 9.6 0.00 0.00 0.00 51 1013.6
20260509191503 65 58 2.6 9.6 0.00 0.00 0.00 51 1013.6
20260509191005 65 58 2.6 6.1 0.00 0.00 0.00 51 1013.6